HULIANWANG DIGUI-157

导读 | 豆包AI

HULIANWANG DIGUI-157(NORAD编号68131)是中国星网星座体系中的低轨卫星,归属于卫星互联网试验星座序列。该卫星主要用于验证卫星互联网相关通信技术,为构建覆盖全球的低轨宽带卫星通信网络积累工程经验。 根据公开轨道数据,其运行在近地轨道,承担天地一体化网络技术验证任务,助力我国卫星互联网产业的技术迭代与星座部署推进,目前已在预定轨道开展相关测试工作。(共148字)

基本信息
目录编号:
68131
目录名称:
HULIANWANG DIGUI-157
国际标识:
2026-047C
轨道中心:
EARTH
卫星名称:
HULIANWANG DIGUI-157
卫星全名:
HULIANWANG DIGUI-157
卫星状态:
在轨 (已飞行34 天)
发射日期:
2026-03-12 UTC
国别 :
中国 (CN)
星等 :
--
轨道信息
数据来源 国际轨道数据
星历时间: 2026-04-15T00:55:53+0800
13小时前
查看轨道信息
半长轴: 7390.563km
偏心率: 0.0001979
轨道倾角: 50.003°
近地点辐角 341.553°
升交点赤经 286.631°
平近点角 18.528°
近地点: 1010.963km
远地点: 1013.889km
周期: 105.384分钟
每日圈数: 13.664272
详细信息
使用方式:
暂无
2D轨道图
3D轨道图
轨道高度分析图
轨道倾角分析图
轨道综合分析图
查看轨道综合分析图